﻿_id,日時,平均風速(m/s),平均風向,最大瞬間風速(m/s),最大風速時風向,気温(℃),湿度(%),10分間移動積算雨量(mm),1時間移動積算雨量(mm),日雨量(mm),累計雨量(mm),日射(日積算)(MJ/m2),日照(日積算)(min),現地気圧(hPa),海面気圧(hPa)
1,2023-11-27T00:00:00,0.4,北,0.8,北西,4.2,96,0,0,0,0,11.07,330,1008.4,1022.9
2,2023-11-27T00:01:00,0.4,北,0.8,北西,4.1,95.9,0,0,0,0,0,0,1008.4,1022.9
3,2023-11-27T00:02:00,0.4,北,0.8,北西,4.2,96,0,0,0,0,0,0,1008.4,1022.9
4,2023-11-27T00:03:00,0.4,北,0.8,北西,4.2,96,0,0,0,0,0,0,1008.4,1022.9
5,2023-11-27T00:04:00,0.4,北,0.8,北西,4.2,96,0,0,0,0,0,0,1008.4,1022.9
6,2023-11-27T00:05:00,0.4,北,1,北,4,95.8,0,0,0,0,0,0,1008.3,1022.8
7,2023-11-27T00:06:00,0.4,北,1,北,4,96,0,0,0,0,0,0,1008.3,1022.8
8,2023-11-27T00:07:00,0.4,北,1,北,4.1,96.1,0,0,0,0,0,0,1008.3,1022.8
9,2023-11-27T00:08:00,0.4,北,1,北,4.1,96.2,0,0,0,0,0,0,1008.3,1022.8
10,2023-11-27T00:09:00,0.4,北北西,1,北,4,96,0,0,0,0,0,0,1008.3,1022.8
11,2023-11-27T00:10:00,0.4,北北西,1,北,4,96,0,0,0,0,0,0,1008.3,1022.8
12,2023-11-27T00:11:00,0.4,北西,1,北,3.9,96.1,0,0,0,0,0,0,1008.3,1022.8
13,2023-11-27T00:12:00,0.4,北西,1,北,4,96.2,0,0,0,0,0,0,1008.3,1022.8
14,2023-11-27T00:13:00,0.4,北西,1,北,4,96.3,0,0,0,0,0,0,1008.3,1022.8
15,2023-11-27T00:14:00,0.4,北西,1,北,4.1,96.2,0,0,0,0,0,0,1008.3,1022.8
16,2023-11-27T00:15:00,0.4,西北西,0.9,北,3.9,95.9,0,0,0,0,0,0,1008.3,1022.8
17,2023-11-27T00:16:00,0.4,西北西,0.8,西北西,4,96.2,0,0,0,0,0,0,1008.2,1022.7
18,2023-11-27T00:17:00,0.5,西北西,1,西,4.1,96.4,0,0,0,0,0,0,1008.2,1022.7
19,2023-11-27T00:18:00,0.5,西,1.2,西南西,4,96.3,0,0,0,0,0,0,1008.3,1022.8
20,2023-11-27T00:19:00,0.6,西,1.6,西北西,4,96.2,0,0,0,0,0,0,1008.2,1022.7
21,2023-11-27T00:20:00,0.7,西,2,西北西,3.9,96,0,0,0,0,0,0,1008.2,1022.7
22,2023-11-27T00:21:00,0.8,西,2,西北西,3.7,95.7,0,0,0,0,0,0,1008.1,1022.6
23,2023-11-27T00:22:00,0.8,西,2,西北西,3.7,95.7,0,0,0,0,0,0,1008.1,1022.6
24,2023-11-27T00:23:00,0.9,西,2,西北西,3.7,95.9,0,0,0,0,0,0,1008.2,1022.7
25,2023-11-27T00:24:00,0.9,西,2,西北西,3.6,96,0,0,0,0,0,0,1008.2,1022.7
26,2023-11-27T00:25:00,1,西,2,西北西,3.9,96.5,0,0,0,0,0,0,1008.2,1022.7
27,2023-11-27T00:26:00,1,西,2,西北西,4.1,96.6,0,0,0,0,0,0,1008.2,1022.7
28,2023-11-27T00:27:00,1.1,西,2,西北西,4,96.1,0,0,0,0,0,0,1008.2,1022.7
29,2023-11-27T00:28:00,1.1,西,2,西北西,3.8,95.8,0,0,0,0,0,0,1008.2,1022.7
30,2023-11-27T00:29:00,1,西,2,西北西,3.9,96.2,0,0,0,0,0,0,1008.1,1022.6
31,2023-11-27T00:30:00,0.8,西,1.8,西北西,4,96.5,0,0,0,0,0,0,1008.2,1022.7
32,2023-11-27T00:31:00,0.7,西南西,1.5,西,4,96.5,0,0,0,0,0,0,1008.1,1022.6
33,2023-11-27T00:32:00,0.6,西南西,1.5,西,4.1,96.5,0,0,0,0,0,0,1008.1,1022.6
34,2023-11-27T00:33:00,0.5,南西,1.5,西,4,96.3,0,0,0,0,0,0,1008.1,1022.6
35,2023-11-27T00:34:00,0.5,南西,1.5,西,4.1,96.3,0,0,0,0,0,0,1008.1,1022.6
36,2023-11-27T00:35:00,0.5,南,1.5,西,4,96,0,0,0,0,0,0,1008.1,1022.6
37,2023-11-27T00:36:00,0.4,南南東,1.5,西,3.9,96,0,0,0,0,0,0,1008.1,1022.6
38,2023-11-27T00:37:00,0.3,東南東,1.2,西,3.8,95.9,0,0,0,0,0,0,1008.1,1022.6
39,2023-11-27T00:38:00,0.3,東,0.8,北北東,3.8,95.9,0,0,0,0,0,0,1008.1,1022.6
40,2023-11-27T00:39:00,0.3,東,0.8,北北東,3.9,96.1,0,0,0,0,0,0,1008.1,1022.6
41,2023-11-27T00:40:00,0.3,東北東,0.8,北北東,3.7,96.1,0,0,0,0,0,0,1008,1022.5
42,2023-11-27T00:41:00,0.3,東北東,0.8,北北東,3.7,96.1,0,0,0,0,0,0,1008.1,1022.6
43,2023-11-27T00:42:00,0.4,東北東,0.8,北北東,3.7,96.2,0,0,0,0,0,0,1008,1022.5
44,2023-11-27T00:43:00,0.4,東北東,0.8,北北東,3.8,96.4,0,0,0,0,0,0,1008.1,1022.6
45,2023-11-27T00:44:00,0.4,東北東,0.8,北北東,3.7,96.4,0,0,0,0,0,0,1008,1022.5
46,2023-11-27T00:45:00,0.3,東北東,0.8,北北東,3.7,96.3,0,0,0,0,0,0,1008.1,1022.6
47,2023-11-27T00:46:00,0.3,東北東,0.6,東北東,3.6,96.4,0,0,0,0,0,0,1008.1,1022.6
48,2023-11-27T00:47:00,0.3,東北東,0.6,東北東,3.6,96.5,0,0,0,0,0,0,1008.1,1022.6
49,2023-11-27T00:48:00,0.3,東北東,0.6,東北東,3.7,96.7,0,0,0,0,0,0,1008.1,1022.6
50,2023-11-27T00:49:00,0.3,東北東,0.6,東北東,3.8,96.7,0,0,0,0,0,0,1008.1,1022.6
51,2023-11-27T00:50:00,0.3,東北東,0.6,東北東,4,96.8,0,0,0,0,0,0,1008,1022.5
52,2023-11-27T00:51:00,0.2,静穏,0.6,東北東,4,96.6,0,0,0,0,0,0,1008,1022.5
53,2023-11-27T00:52:00,0.2,静穏,0.6,東北東,4.1,96.3,0,0,0,0,0,0,1008.1,1022.6
54,2023-11-27T00:53:00,0.2,静穏,0.6,東北東,4.1,96.3,0,0,0,0,0,0,1008,1022.5
55,2023-11-27T00:54:00,0.1,静穏,0.6,東北東,3.9,96,0,0,0,0,0,0,1008,1022.5
56,2023-11-27T00:55:00,0.1,静穏,0.6,東北東,4,96,0,0,0,0,0,0,1008,1022.5
57,2023-11-27T00:56:00,0.1,静穏,0.4,北北東,4,96.1,0,0,0,0,0,0,1007.9,1022.4
58,2023-11-27T00:57:00,0.1,静穏,0.4,北北東,4,96.1,0,0,0,0,0,0,1007.9,1022.4
59,2023-11-27T00:58:00,0.1,静穏,0.7,北北東,4,96.1,0,0,0,0,0,0,1007.9,1022.4
60,2023-11-27T00:59:00,0.1,静穏,0.7,北北東,4,96,0,0,0,0,0,0,1008,1022.5
61,2023-11-27T01:00:00,0.1,静穏,0.7,北北東,3.9,96,0,0,0,0,0,0,1007.9,1022.4
62,2023-11-27T01:01:00,0.2,静穏,0.7,北北東,3.7,95.9,0,0,0,0,0,0,1007.9,1022.4
63,2023-11-27T01:02:00,0.2,静穏,0.7,北北東,3.9,96.3,0,0,0,0,0,0,1007.9,1022.4
64,2023-11-27T01:03:00,0.2,静穏,0.7,北北東,4,96.5,0,0,0,0,0,0,1007.9,1022.4
65,2023-11-27T01:04:00,0.2,静穏,0.7,北北東,4,96.6,0,0,0,0,0,0,1007.9,1022.4
66,2023-11-27T01:05:00,0.2,静穏,0.7,北北東,4,96.6,0,0,0,0,0,0,1007.9,1022.4
67,2023-11-27T01:06:00,0.2,静穏,0.7,北北東,4,96.6,0,0,0,0,0,0,1007.9,1022.4
68,2023-11-27T01:07:00,0.2,静穏,0.7,北北東,4,96.5,0,0,0,0,0,0,1007.9,1022.4
69,2023-11-27T01:08:00,0.2,静穏,0.7,西,3.9,96.5,0,0,0,0,0,0,1007.9,1022.4
70,2023-11-27T01:09:00,0.2,静穏,0.7,西,3.9,96.4,0,0,0,0,0,0,1007.9,1022.4
71,2023-11-27T01:10:00,0.1,静穏,0.7,西,4,96.6,0,0,0,0,0,0,1007.9,1022.4
72,2023-11-27T01:11:00,0.1,静穏,0.6,西,4.1,96.7,0,0,0,0,0,0,1007.9,1022.4
73,2023-11-27T01:12:00,0.1,静穏,0.6,西,4,96.4,0,0,0,0,0,0,1007.9,1022.4
74,2023-11-27T01:13:00,0.1,静穏,0.6,西,3.9,96.4,0,0,0,0,0,0,1007.9,1022.4
75,2023-11-27T01:14:00,0.1,静穏,0.6,西,3.8,96.4,0,0,0,0,0,0,1007.9,1022.4
76,2023-11-27T01:15:00,0.1,静穏,0.6,西,3.9,96.5,0,0,0,0,0,0,1007.9,1022.4
77,2023-11-27T01:16:00,0.2,静穏,0.7,北北東,4,96.8,0,0,0,0,0,0,1007.9,1022.4
78,2023-11-27T01:17:00,,"",,"",,,,,,,,,,
79,2023-11-27T01:18:00,0.3,北,0.9,北北東,3.9,96.5,0,0,0,0,0,0,1007.9,1022.4
80,2023-11-27T01:19:00,0.3,北,0.9,北北東,3.9,96.6,0,0,0,0,0,0,1007.9,1022.4
81,2023-11-27T01:20:00,0.3,北,0.9,北北東,3.9,96.8,0,0,0,0,0,0,1007.9,1022.4
82,2023-11-27T01:21:00,0.3,北,0.9,北北東,3.8,97.1,0,0,0,0,0,0,1007.9,1022.4
83,2023-11-27T01:22:00,0.3,北北東,0.9,北北東,3.6,96.8,0,0,0,0,0,0,1007.9,1022.4
84,2023-11-27T01:23:00,0.4,北北東,0.9,北北東,3.6,97.1,0,0,0,0,0,0,1007.9,1022.4
85,2023-11-27T01:24:00,0.4,北北東,0.9,北北東,3.8,97.4,0,0,0,0,0,0,1007.9,1022.4
86,2023-11-27T01:25:00,0.3,北北東,0.9,北北東,3.9,97.7,0,0,0,0,0,0,1007.9,1022.4
87,2023-11-27T01:26:00,0.3,北北東,0.9,北北東,3.9,97.7,0,0,0,0,0,0,1007.9,1022.4
88,2023-11-27T01:27:00,0.3,北北東,0.9,北北東,3.8,97.5,0,0,0,0,0,0,1007.9,1022.4
89,2023-11-27T01:28:00,0.3,北北東,0.9,北,3.8,97.7,0,0,0,0,0,0,1007.9,1022.4
90,2023-11-27T01:29:00,,"",,"",,,,,,,,,,
91,2023-11-27T01:30:00,0.3,北北東,0.9,北,3.9,97.9,0,0,0,0,0,0,1007.9,1022.4
92,2023-11-27T01:31:00,0.4,北北東,0.9,北,3.9,97.9,0,0,0,0,0,0,1007.9,1022.4
93,2023-11-27T01:32:00,0.4,北北東,0.9,北,3.8,97.9,0,0,0,0,0,0,1007.9,1022.4
94,2023-11-27T01:33:00,0.3,北北東,0.9,北,3.7,97.8,0,0,0,0,0,0,1007.9,1022.4
95,2023-11-27T01:34:00,0.3,北北東,0.9,北,3.8,97.8,0,0,0,0,0,0,1008,1022.5
96,2023-11-27T01:35:00,0.4,北北東,0.9,北,3.9,97.9,0,0,0,0,0,0,1007.9,1022.4
97,2023-11-27T01:36:00,0.4,北北東,1.1,北西,3.9,98,0,0,0,0,0,0,1007.9,1022.4
98,2023-11-27T01:37:00,0.4,北,1.1,北西,4.1,98,0,0,0,0,0,0,1007.9,1022.4
99,2023-11-27T01:38:00,0.4,北,1.1,北西,4,98.1,0,0,0,0,0,0,1007.8,1022.3
100,2023-11-27T01:39:00,0.5,北,1.1,北西,3.9,98,0,0,0,0,0,0,1007.8,1022.3
101,2023-11-27T01:40:00,0.5,北,1.1,北西,4,98,0,0,0,0,0,0,1007.8,1022.3
102,2023-11-27T01:41:00,0.5,北,1.1,北西,3.9,98.1,0,0,0,0,0,0,1007.8,1022.3
103,2023-11-27T01:42:00,0.5,北北西,1.1,北西,3.8,98,0,0,0,0,0,0,1007.8,1022.3
104,2023-11-27T01:43:00,0.5,北北西,1.1,北西,3.8,97.9,0,0,0,0,0,0,1007.8,1022.3
105,2023-11-27T01:44:00,0.5,北北西,1.1,北西,3.9,98,0,0,0,0,0,0,1007.8,1022.3
106,2023-11-27T01:45:00,0.5,北北西,1.1,北西,3.9,98.1,0,0,0,0,0,0,1007.8,1022.3
107,2023-11-27T01:46:00,0.5,北北西,1.1,北西,3.9,98.1,0,0,0,0,0,0,1007.8,1022.3
108,2023-11-27T01:47:00,0.5,北北西,1.1,北西,3.9,98.1,0,0,0,0,0,0,1007.8,1022.3
109,2023-11-27T01:48:00,0.4,北北西,1.1,北西,3.9,98.2,0,0,0,0,0,0,1007.9,1022.4
110,2023-11-27T01:49:00,0.4,北北西,1.2,北北東,3.8,98.1,0,0,0,0,0,0,1007.9,1022.4
111,2023-11-27T01:50:00,0.5,北北西,1.2,北北東,3.9,98.1,0,0,0,0,0,0,1007.9,1022.4
112,2023-11-27T01:51:00,0.6,北,1.2,北北東,4,98.2,0,0,0,0,0,0,1007.9,1022.4
113,2023-11-27T01:52:00,0.6,北,1.3,北,4,98.3,0,0,0,0,0,0,1007.9,1022.4
114,2023-11-27T01:53:00,0.6,北,1.3,北,4.1,98.3,0,0,0,0,0,0,1007.9,1022.4
115,2023-11-27T01:54:00,0.6,北,1.3,北,4,98.3,0,0,0,0,0,0,1007.9,1022.4
116,2023-11-27T01:55:00,0.6,北,1.3,北,4.1,98.3,0,0,0,0,0,0,1007.9,1022.4
117,2023-11-27T01:56:00,0.7,北,1.3,北,4.1,98.3,0,0,0,0,0,0,1008,1022.5
118,2023-11-27T01:57:00,0.7,北北東,1.6,北北東,4.2,98.3,0,0,0,0,0,0,1008,1022.5
119,2023-11-27T01:58:00,0.8,北北東,1.6,北北東,4.1,98.3,0,0,0,0,0,0,1007.9,1022.4
120,2023-11-27T01:59:00,0.8,北北東,1.6,北北東,4.1,98.3,0,0,0,0,0,0,1007.9,1022.4
121,2023-11-27T02:00:00,0.7,北,1.6,北北東,4,98.2,0,0,0,0,0,0,1008,1022.5
122,2023-11-27T02:01:00,0.7,北,1.6,北北東,4.1,98.2,0,0,0,0,0,0,1007.9,1022.4
123,2023-11-27T02:02:00,0.7,北,1.6,北北東,4.1,98.2,0,0,0,0,0,0,1008,1022.5
124,2023-11-27T02:03:00,0.7,北,1.6,北北東,4.1,98.2,0,0,0,0,0,0,1007.9,1022.4
125,2023-11-27T02:04:00,0.7,北,1.6,北北東,4.1,98.2,0,0,0,0,0,0,1007.9,1022.4
126,2023-11-27T02:05:00,0.7,北,1.6,北北東,4.1,98.2,0,0,0,0,0,0,1007.9,1022.4
127,2023-11-27T02:06:00,0.8,北,1.6,北北東,4,98.1,0,0,0,0,0,0,1008,1022.5
128,2023-11-27T02:07:00,0.7,北,1.6,北北東,4.1,98.1,0,0,0,0,0,0,1008,1022.5
129,2023-11-27T02:08:00,0.7,北,1.4,北北東,4.1,98.1,0,0,0,0,0,0,1008,1022.5
130,2023-11-27T02:09:00,0.7,北,1.4,北北東,4.1,98.1,0,0,0,0,0,0,1008,1022.5
131,2023-11-27T02:10:00,0.7,北,1.4,北北東,4.1,98.1,0,0,0,0,0,0,1007.9,1022.4
132,2023-11-27T02:11:00,0.7,北,1.7,北北東,4.1,98.1,0,0,0,0,0,0,1007.9,1022.4
133,2023-11-27T02:12:00,0.7,北,1.7,北北東,4.1,98.1,0,0,0,0,0,0,1007.9,1022.4
134,2023-11-27T02:13:00,0.7,北,1.7,北北東,4.1,98.1,0,0,0,0,0,0,1007.9,1022.4
135,2023-11-27T02:14:00,0.7,北,1.7,北北東,3.9,98.1,0,0,0,0,0,0,1008,1022.5
136,2023-11-27T02:15:00,0.7,北,1.7,北北東,4,98.1,0,0,0,0,0,0,1007.9,1022.4
137,2023-11-27T02:16:00,0.7,北,1.7,北北東,4.1,98.1,0,0,0,0,0,0,1007.9,1022.4
138,2023-11-27T02:17:00,0.7,北,1.7,北北東,4,98.2,0,0,0,0,0,0,1007.9,1022.4
139,2023-11-27T02:18:00,0.7,北北西,1.7,北北東,4.1,98.1,0,0,0,0,0,0,1007.9,1022.4
140,2023-11-27T02:19:00,0.7,北北西,1.7,北北東,4,98.1,0,0,0,0,0,0,1007.9,1022.4
141,2023-11-27T02:20:00,0.7,北北西,1.7,北北東,3.9,98.1,0,0,0,0,0,0,1007.9,1022.4
142,2023-11-27T02:21:00,0.6,北北西,1.4,北西,3.9,98.1,0,0,0,0,0,0,1007.8,1022.3
143,2023-11-27T02:22:00,0.6,北北西,1.4,北西,4.1,98.1,0,0,0,0,0,0,1007.9,1022.4
144,2023-11-27T02:23:00,0.6,北北西,1.4,北西,4,98.2,0,0,0,0,0,0,1007.8,1022.3
145,2023-11-27T02:24:00,0.6,北北西,1.4,北西,4,98.1,0,0,0,0,0,0,1007.9,1022.4
146,2023-11-27T02:25:00,0.6,北北西,1.4,北西,4,98.1,0,0,0,0,0,0,1007.9,1022.4
147,2023-11-27T02:26:00,0.5,北北西,1.4,北西,3.9,98.1,0,0,0,0,0,0,1007.8,1022.3
148,2023-11-27T02:27:00,0.5,北北西,1.2,西北西,3.8,98.1,0,0,0,0,0,0,1007.8,1022.3
149,2023-11-27T02:28:00,0.4,北北西,1.2,西北西,3.9,98.1,0,0,0,0,0,0,1007.8,1022.3
150,2023-11-27T02:29:00,0.5,北西,1.2,西北西,4,98.2,0,0,0,0,0,0,1007.9,1022.4
151,2023-11-27T02:30:00,0.5,北西,1.1,北西,3.8,98.2,0,0,0,0,0,0,1007.9,1022.4
152,2023-11-27T02:31:00,0.5,北西,1.1,北西,3.8,98.1,0,0,0,0,0,0,1007.9,1022.4
153,2023-11-27T02:32:00,0.5,北西,1.1,北西,3.9,98.2,0,0,0,0,0,0,1007.8,1022.3
154,2023-11-27T02:33:00,0.5,北西,1.1,北西,4,98.2,0,0,0,0,0,0,1007.8,1022.3
155,2023-11-27T02:34:00,0.5,西北西,1.1,北西,3.9,98.2,0,0,0,0,0,0,1007.8,1022.3
156,2023-11-27T02:35:00,0.5,西北西,1.1,北西,3.9,98.2,0,0,0,0,0,0,1007.9,1022.4
157,2023-11-27T02:36:00,0.6,西北西,1.1,北西,3.9,98.3,0,0,0,0,0,0,1007.9,1022.4
158,2023-11-27T02:37:00,0.6,西北西,1.1,北西,3.8,98.2,0,0,0,0,0,0,1007.9,1022.4
159,2023-11-27T02:38:00,0.5,北西,1.1,北西,4,98.2,0,0,0,0,0,0,1007.9,1022.4
160,2023-11-27T02:39:00,0.5,北西,1.1,北西,3.9,98.3,0,0,0,0,0,0,1007.9,1022.4
161,2023-11-27T02:40:00,0.4,北西,1.1,西北西,4,98.3,0,0,0,0,0,0,1007.9,1022.4
162,2023-11-27T02:41:00,0.4,北西,1.1,西北西,4,98.3,0,0,0,0,0,0,1007.9,1022.4
163,2023-11-27T02:42:00,0.3,北北西,0.9,西北西,3.9,98.3,0,0,0,0,0,0,1008,1022.5
164,2023-11-27T02:43:00,0.3,北北西,0.9,西北西,4,98.3,0,0,0,0,0,0,1007.9,1022.4
165,2023-11-27T02:44:00,0.2,静穏,0.8,西北西,3.7,98.3,0,0,0,0,0,0,1007.9,1022.4
166,2023-11-27T02:45:00,0.2,静穏,0.8,西北西,4,98.2,0,0,0,0,0,0,1007.8,1022.3
167,2023-11-27T02:46:00,0.2,静穏,0.6,北西,4.1,98.3,0,0,0,0,0,0,1007.8,1022.3
168,2023-11-27T02:47:00,0.2,静穏,0.6,北西,3.9,98.3,0,0,0,0,0,0,1007.9,1022.4
169,2023-11-27T02:48:00,0.2,静穏,0.6,北西,3.9,98.3,0,0,0,0,0,0,1007.9,1022.4
170,2023-11-27T02:49:00,0.2,静穏,0.6,北西,3.9,98.3,0,0,0,0,0,0,1007.9,1022.4
171,2023-11-27T02:50:00,0.2,静穏,0.6,北西,3.8,98.2,0,0,0,0,0,0,1007.8,1022.3
172,2023-11-27T02:51:00,0.2,静穏,0.5,北,3.8,98.2,0,0,0,0,0,0,1007.9,1022.4
173,2023-11-27T02:52:00,0.2,静穏,0.5,北,3.9,98.2,0,0,0,0,0,0,1007.9,1022.4
174,2023-11-27T02:53:00,0.2,静穏,0.5,北,3.8,98.3,0,0,0,0,0,0,1007.9,1022.4
175,2023-11-27T02:54:00,0.2,静穏,0.9,北,3.9,98.3,0,0,0,0,0,0,1007.9,1022.4
176,2023-11-27T02:55:00,0.2,静穏,0.9,北,3.9,98.3,0,0,0,0,0,0,1007.8,1022.3
177,2023-11-27T02:56:00,0.2,静穏,0.9,北,4,98.4,0,0,0,0,0,0,1007.9,1022.4
178,2023-11-27T02:57:00,0.3,北北東,1.1,西,3.9,98.3,0,0,0,0,0,0,1007.9,1022.4
179,2023-11-27T02:58:00,0.3,北北東,1.1,西,3.7,98.3,0,0,0,0,0,0,1008,1022.5
180,2023-11-27T02:59:00,0.3,北北東,1.1,西,3.9,98.3,0,0,0,0,0,0,1007.9,1022.4
181,2023-11-27T03:00:00,0.3,北,1.1,西,3.8,98.3,0,0,0,0,0,0,1007.9,1022.4
182,2023-11-27T03:01:00,0.4,北,1.1,西,3.8,98.3,0,0,0,0,0,0,1007.9,1022.4
183,2023-11-27T03:02:00,0.5,北北西,1.1,西,3.9,98.3,0,0,0,0,0,0,1007.9,1022.4
184,2023-11-27T03:03:00,0.5,北北西,1.1,西,3.9,98.3,0,0,0,0,0,0,1007.8,1022.3
185,2023-11-27T03:04:00,0.5,北北西,1.1,西,3.7,98.3,0,0,0,0,0,0,1007.8,1022.3
186,2023-11-27T03:05:00,0.6,北西,1.1,西,3.8,98.2,0,0,0,0,0,0,1007.9,1022.4
187,2023-11-27T03:06:00,0.6,北西,1.1,西,3.7,98.3,0,0,0,0,0,0,1007.8,1022.3
188,2023-11-27T03:07:00,0.6,北西,1.2,北東,3.8,98.3,0,0,0,0,0,0,1007.8,1022.3
189,2023-11-27T03:08:00,0.7,北北西,1.5,北東,3.8,98.4,0,0,0,0,0,0,1007.8,1022.3
190,2023-11-27T03:09:00,0.7,北北西,1.5,北東,3.9,98.3,0,0,0,0,0,0,1007.8,1022.3
191,2023-11-27T03:10:00,0.7,北,1.5,北東,3.9,98.3,0,0,0,0,0,0,1007.8,1022.3
192,2023-11-27T03:11:00,0.8,北,1.5,北東,3.8,98.3,0,0,0,0,0,0,1007.8,1022.3
193,2023-11-27T03:12:00,0.8,北,1.5,北東,3.7,98.3,0,0,0,0,0,0,1007.8,1022.3
194,2023-11-27T03:13:00,0.8,北北東,1.5,北東,3.6,98.3,0,0,0,0,0,0,1007.8,1022.3
195,2023-11-27T03:14:00,0.8,北北東,1.5,北東,3.6,98.3,0,0,0,0,0,0,1007.8,1022.3
196,2023-11-27T03:15:00,0.8,北北東,1.5,北東,3.6,98.2,0,0,0,0,0,0,1007.8,1022.3
197,2023-11-27T03:16:00,0.8,北,1.5,北東,3.7,98.2,0,0,0,0,0,0,1007.8,1022.3
198,2023-11-27T03:17:00,0.8,北,1.5,北東,3.9,98.3,0,0,0,0,0,0,1007.8,1022.3
199,2023-11-27T03:18:00,0.8,北北西,1.4,北,3.7,98.3,0,0,0,0,0,0,1007.7,1022.2
200,2023-11-27T03:19:00,0.8,北北西,1.4,北,3.8,98.3,0,0,0,0,0,0,1007.7,1022.2
201,2023-11-27T03:20:00,0.7,北北西,1.4,北,3.8,98.4,0,0,0,0,0,0,1007.7,1022.2
202,2023-11-27T03:21:00,0.7,北西,1.2,西北西,3.7,98.3,0,0,0,0,0,0,1007.7,1022.2
203,2023-11-27T03:22:00,0.7,北西,1.2,西北西,3.7,98.3,0,0,0,0,0,0,1007.8,1022.3
204,2023-11-27T03:23:00,0.7,北西,1.2,西北西,3.6,98.3,0,0,0,0,0,0,1007.7,1022.2
205,2023-11-27T03:24:00,0.7,北西,1.2,西北西,3.7,98.3,0,0,0,0,0,0,1007.7,1022.2
206,2023-11-27T03:25:00,0.7,北西,1.2,西北西,3.8,98.4,0,0,0,0,0,0,1007.7,1022.2
207,2023-11-27T03:26:00,0.6,北西,1.2,西北西,3.7,98.4,0,0,0,0,0,0,1007.7,1022.2
208,2023-11-27T03:27:00,0.6,北西,1.2,西北西,3.7,98.4,0,0,0,0,0,0,1007.7,1022.2
209,2023-11-27T03:28:00,0.6,北西,1.2,西北西,3.5,98.3,0,0,0,0,0,0,1007.7,1022.2
210,2023-11-27T03:29:00,0.5,西北西,1.2,西北西,3.6,98.3,0,0,0,0,0,0,1007.7,1022.2
211,2023-11-27T03:30:00,0.4,西北西,0.9,北西,3.5,98.3,0,0,0,0,0,0,1007.6,1022.1
212,2023-11-27T03:31:00,0.4,西北西,0.9,北西,3.6,98.3,0,0,0,0,0,0,1007.6,1022.1
213,2023-11-27T03:32:00,0.4,西北西,1,西南西,3.6,98.4,0,0,0,0,0,0,1007.6,1022.1
214,2023-11-27T03:33:00,0.4,西,1,西南西,3.5,98.3,0,0,0,0,0,0,1007.6,1022.1
215,2023-11-27T03:34:00,0.4,西,1,西南西,3.6,98.3,0,0,0,0,0,0,1007.6,1022.1
216,2023-11-27T03:35:00,0.4,西,1,西南西,3.5,98.3,0,0,0,0,0,0,1007.6,1022.1
217,2023-11-27T03:36:00,0.4,西,1,西南西,3.5,98.3,0,0,0,0,0,0,1007.6,1022.1
218,2023-11-27T03:37:00,0.4,西,1,西南西,3.6,98.3,0,0,0,0,0,0,1007.6,1022.1
219,2023-11-27T03:38:00,0.4,西北西,1,西南西,3.5,98.3,0,0,0,0,0,0,1007.6,1022.1
220,2023-11-27T03:39:00,0.4,西北西,1,西南西,3.4,98.3,0,0,0,0,0,0,1007.6,1022.1
221,2023-11-27T03:40:00,0.4,西北西,1,西南西,3.4,98.3,0,0,0,0,0,0,1007.6,1022.1
222,2023-11-27T03:41:00,0.4,西北西,1,西南西,3.4,98.3,0,0,0,0,0,0,1007.5,1022
223,2023-11-27T03:42:00,0.4,西北西,0.9,西南西,3.4,98.3,0,0,0,0,0,0,1007.5,1022
224,2023-11-27T03:43:00,0.3,西北西,0.8,西北西,3.2,98.3,0,0,0,0,0,0,1007.5,1022
225,2023-11-27T03:44:00,0.3,西北西,0.8,西北西,3.6,98.2,0,0,0,0,0,0,1007.5,1022
226,2023-11-27T03:45:00,0.2,静穏,0.8,西北西,3.6,98.4,0,0,0,0,0,0,1007.5,1022
227,2023-11-27T03:46:00,0.2,静穏,0.7,北西,3.7,98.4,0,0,0,0,0,0,1007.4,1021.9
228,2023-11-27T03:47:00,0.2,静穏,0.6,西南西,3.7,98.4,0,0,0,0,0,0,1007.4,1021.9
229,2023-11-27T03:48:00,0.2,静穏,0.7,西南西,3.6,98.4,0,0,0,0,0,0,1007.4,1021.9
230,2023-11-27T03:49:00,0.2,静穏,0.8,南西,3.6,98.3,0,0,0,0,0,0,1007.5,1022
231,2023-11-27T03:50:00,0.2,静穏,0.8,南西,3.4,98.3,0,0,0,0,0,0,1007.5,1022
232,2023-11-27T03:51:00,0.2,静穏,1.2,西,3.5,98.3,0,0,0,0,0,0,1007.5,1022
233,2023-11-27T03:52:00,0.3,南南西,1.2,西,3.3,98.3,0,0,0,0,0,0,1007.5,1022
234,2023-11-27T03:53:00,0.3,南南西,1.2,西,3,98.1,0,0,0,0,0,0,1007.5,1022
235,2023-11-27T03:54:00,0.3,南西,1.2,西,3,98,0,0,0,0,0,0,1007.5,1022
236,2023-11-27T03:55:00,0.4,南西,1.3,西,3,98.1,0,0,0,0,0,0,1007.4,1021.9
237,2023-11-27T03:56:00,0.4,西南西,1.5,西南西,3,98.1,0,0,0,0,0,0,1007.5,1022
238,2023-11-27T03:57:00,0.5,西南西,1.5,西南西,3,98.2,0,0,0,0,0,0,1007.5,1022
239,2023-11-27T03:58:00,0.5,西南西,1.5,西南西,3.1,98.2,0,0,0,0,0,0,1007.5,1022
240,2023-11-27T03:59:00,0.5,西,1.5,西南西,3.2,98.3,0,0,0,0,0,0,1007.4,1021.9
241,2023-11-27T04:00:00,0.5,西,1.5,西南西,3.4,98.4,0,0,0,0,0,0,1007.4,1021.9
242,2023-11-27T04:01:00,0.5,西南西,1.5,西南西,3.3,98.4,0,0,0,0,0,0,1007.3,1021.8
243,2023-11-27T04:02:00,0.4,西南西,1.5,西南西,3.3,98.4,0,0,0,0,0,0,1007.3,1021.8
244,2023-11-27T04:03:00,0.4,西,1.5,西南西,3.3,98.5,0,0,0,0,0,0,1007.3,1021.8
245,2023-11-27T04:04:00,0.4,西,1.5,西南西,3,98.4,0,0,0,0,0,0,1007.3,1021.8
246,2023-11-27T04:05:00,0.4,西南西,1.5,西南西,3.1,98.3,0,0,0,0,0,0,1007.3,1021.8
247,2023-11-27T04:06:00,0.3,西南西,1.4,西南西,3.1,98.3,0,0,0,0,0,0,1007.3,1021.8
248,2023-11-27T04:07:00,0.3,西南西,1.2,西,3.3,98.4,0,0,0,0,0,0,1007.3,1021.8
249,2023-11-27T04:08:00,0.3,西南西,1.3,西,3.3,98.5,0,0,0,0,0,0,1007.3,1021.8
250,2023-11-27T04:09:00,0.4,西南西,1.6,西,3.6,98.5,0,0,0,0,0,0,1007.3,1021.8
251,2023-11-27T04:10:00,0.5,西南西,1.7,西,3.3,98.6,0,0,0,0,0,0,1007.3,1021.8
252,2023-11-27T04:11:00,0.6,西南西,1.7,西,3.2,98.5,0,0,0,0,0,0,1007.3,1021.8
253,2023-11-27T04:12:00,0.6,西,1.7,西,3.2,98.4,0,0,0,0,0,0,1007.3,1021.8
254,2023-11-27T04:13:00,0.7,西,1.7,西,3.1,98.4,0,0,0,0,0,0,1007.3,1021.8
255,2023-11-27T04:14:00,0.7,西,1.7,西,3.2,98.4,0,0,0,0,0,0,1007.4,1021.9
256,2023-11-27T04:15:00,0.7,西,1.7,西,3.1,98.4,0,0,0,0,0,0,1007.3,1021.8
257,2023-11-27T04:16:00,0.7,西,1.7,西,3.1,98.4,0,0,0,0,0,0,1007.3,1021.8
258,2023-11-27T04:17:00,0.7,西,1.7,西,2.9,98.3,0,0,0,0,0,0,1007.4,1021.9
259,2023-11-27T04:18:00,0.7,西,1.7,西,3,98.4,0,0,0,0,0,0,1007.4,1021.9
260,2023-11-27T04:19:00,0.7,西,1.7,西,2.9,98.3,0,0,0,0,0,0,1007.4,1021.9
261,2023-11-27T04:20:00,0.7,西,1.4,西南西,3.3,98.4,0,0,0,0,0,0,1007.4,1021.9
262,2023-11-27T04:21:00,0.7,西南西,1.4,南西,3.3,98.5,0,0,0,0,0,0,1007.4,1021.9
263,2023-11-27T04:22:00,0.7,西,2.2,西,3,98.5,0,0,0,0,0,0,1007.3,1021.8
264,2023-11-27T04:23:00,0.7,西,2.2,西,3.1,98.4,0,0,0,0,0,0,1007.3,1021.8
265,2023-11-27T04:24:00,0.7,西,2.2,西,3.2,98.4,0,0,0,0,0,0,1007.3,1021.8
266,2023-11-27T04:25:00,0.8,西,2.2,西,3.1,98.5,0,0,0,0,0,0,1007.3,1021.8
267,2023-11-27T04:26:00,0.9,西,2.2,西,3.2,98.5,0,0,0,0,0,0,1007.2,1021.7
268,2023-11-27T04:27:00,1,西,2.2,西,3.1,98.5,0,0,0,0,0,0,1007.2,1021.7
269,2023-11-27T04:28:00,1,西,2.2,西,3,98.5,0,0,0,0,0,0,1007.2,1021.7
270,2023-11-27T04:29:00,1,西,2.2,西,2.9,98.4,0,0,0,0,0,0,1007.2,1021.7
271,2023-11-27T04:30:00,1,西,2.2,西,3.2,98.4,0,0,0,0,0,0,1007.2,1021.7
272,2023-11-27T04:31:00,1.1,西,2.2,西,2.9,98.5,0,0,0,0,0,0,1007.1,1021.6
273,2023-11-27T04:32:00,1,西,1.8,西,3,98.4,0,0,0,0,0,0,1007.1,1021.6
274,2023-11-27T04:33:00,1.1,西,1.8,西,3.1,98.5,0,0,0,0,0,0,1007.1,1021.6
275,2023-11-27T04:34:00,1.2,西,1.8,西,3,98.5,0,0,0,0,0,0,1007.1,1021.6
276,2023-11-27T04:35:00,1.2,西,1.8,西,3,98.4,0,0,0,0,0,0,1007,1021.5
277,2023-11-27T04:36:00,1.2,西,1.8,西,3.1,98.4,0,0,0,0,0,0,1007.1,1021.6
278,2023-11-27T04:37:00,1.2,西,1.9,西,2.9,98.4,0,0,0,0,0,0,1007.1,1021.6
279,2023-11-27T04:38:00,1.2,西,1.9,西,2.7,98.4,0,0,0,0,0,0,1007.1,1021.6
280,2023-11-27T04:39:00,1.3,西,1.9,西,2.6,98.3,0,0,0,0,0,0,1007,1021.5
281,2023-11-27T04:40:00,1.3,西,2,西,2.6,98.2,0,0,0,0,0,0,1007,1021.5
282,2023-11-27T04:41:00,1.3,西,2.3,西,2.6,98.3,0,0,0,0,0,0,1007,1021.5
283,2023-11-27T04:42:00,1.4,西,2.3,西,2.5,98.3,0,0,0,0,0,0,1007,1021.6
284,2023-11-27T04:43:00,1.4,西,2.3,西,2.5,98.3,0,0,0,0,0,0,1007,1021.6
285,2023-11-27T04:44:00,1.4,西,2.3,西,2.6,98.2,0,0,0,0,0,0,1007,1021.5
286,2023-11-27T04:45:00,1.5,西,2.3,西,2.7,98.4,0,0,0,0,0,0,1006.9,1021.4
287,2023-11-27T04:46:00,1.5,西,2.3,西,2.5,98.4,0,0,0,0,0,0,1006.9,1021.4
288,2023-11-27T04:47:00,1.5,西,2.3,西,2.5,98.3,0,0,0,0,0,0,1006.9,1021.4
289,2023-11-27T04:48:00,1.5,西,2.3,西,2.6,98.4,0,0,0,0,0,0,1006.9,1021.4
290,2023-11-27T04:49:00,1.6,西,2.3,西,2.6,98.4,0,0,0,0,0,0,1006.9,1021.4
291,2023-11-27T04:50:00,1.6,西,2.3,西,2.7,98.4,0,0,0,0,0,0,1006.9,1021.4
292,2023-11-27T04:51:00,1.5,西,2,西北西,2.7,98.5,0,0,0,0,0,0,1006.9,1021.4
293,2023-11-27T04:52:00,1.5,西,2,西北西,2.7,98.5,0,0,0,0,0,0,1006.8,1021.3
294,2023-11-27T04:53:00,1.4,西,2,西北西,2.7,98.5,0,0,0,0,0,0,1006.8,1021.3
295,2023-11-27T04:54:00,1.4,西,2,西北西,2.7,98.5,0,0,0,0,0,0,1006.8,1021.3
296,2023-11-27T04:55:00,1.3,西,2,西北西,2.7,98.5,0,0,0,0,0,0,1006.8,1021.3
297,2023-11-27T04:56:00,1.2,西,2,西北西,2.9,98.5,0,0,0,0,0,0,1006.7,1021.2
298,2023-11-27T04:57:00,1.1,西北西,2,西北西,3,98.5,0,0,0,0,0,0,1006.8,1021.3
299,2023-11-27T04:58:00,1,西北西,1.9,西北西,2.9,98.6,0,0,0,0,0,0,1006.8,1021.3
300,2023-11-27T04:59:00,1,西北西,1.8,西,3,98.6,0,0,0,0,0,0,1006.8,1021.3
301,2023-11-27T05:00:00,1,西北西,1.8,西,3.1,98.6,0,0,0,0,0,0,1006.9,1021.4
302,2023-11-27T05:01:00,1,西北西,1.8,西,3,98.6,0,0,0,0,0,0,1006.9,1021.4
303,2023-11-27T05:02:00,1.1,西北西,1.8,西,3,98.5,0,0,0,0,0,0,1006.9,1021.4
304,2023-11-27T05:03:00,1.1,西北西,1.8,西,3,98.4,0,0,0,0,0,0,1006.9,1021.4
305,2023-11-27T05:04:00,1.1,西北西,1.8,西,2.9,98.4,0,0,0,0,0,0,1006.9,1021.4
306,2023-11-27T05:05:00,1.1,西北西,1.8,西,2.6,98.2,0,0,0,0,0,0,1006.9,1021.4
307,2023-11-27T05:06:00,1.2,西北西,1.8,西,2.7,98.2,0,0,0,0,0,0,1006.9,1021.4
308,2023-11-27T05:07:00,1.2,西,1.8,西,2.7,98.2,0,0,0,0,0,0,1006.9,1021.4
309,2023-11-27T05:08:00,1.2,西,1.8,西,2.6,98.2,0,0,0,0,0,0,1006.8,1021.3
310,2023-11-27T05:09:00,1.1,西,1.8,西,2.7,98.3,0,0,0,0,0,0,1006.9,1021.4
311,2023-11-27T05:10:00,1.1,西,1.7,西,2.8,98.3,0,0,0,0,0,0,1006.9,1021.4
312,2023-11-27T05:11:00,1,西,1.5,西北西,2.8,98.3,0,0,0,0,0,0,1006.9,1021.4
313,2023-11-27T05:12:00,1,西,1.6,西,2.8,98.4,0,0,0,0,0,0,1006.9,1021.4
314,2023-11-27T05:13:00,1,西,1.6,西,2.9,98.4,0,0,0,0,0,0,1006.9,1021.4
315,2023-11-27T05:14:00,1,西,1.6,西,2.6,98.4,0,0,0,0,0,0,1006.8,1021.3
316,2023-11-27T05:15:00,1,西,1.6,西,2.4,98.2,0,0,0,0,0,0,1006.8,1021.4
317,2023-11-27T05:16:00,0.9,西,1.6,西,2.3,98.2,0,0,0,0,0,0,1006.9,1021.5
318,2023-11-27T05:17:00,0.9,西,1.6,西,2.4,98.2,0,0,0,0,0,0,1006.9,1021.5
319,2023-11-27T05:18:00,0.9,西,1.6,西,2.6,98.3,0,0,0,0,0,0,1006.9,1021.4
320,2023-11-27T05:19:00,0.9,西,1.6,西,2.7,98.4,0,0,0,0,0,0,1007,1021.5
321,2023-11-27T05:20:00,0.9,西,1.6,西,2.6,98.4,0,0,0,0,0,0,1006.9,1021.4
322,2023-11-27T05:21:00,0.9,西,1.6,西,2.5,98.4,0,0,0,0,0,0,1006.9,1021.4
323,2023-11-27T05:22:00,0.8,西,1.4,西,2.5,98.3,0,0,0,0,0,0,1006.9,1021.4
324,2023-11-27T05:23:00,0.8,西,1.4,西,2.9,98.3,0,0,0,0,0,0,1007,1021.5
325,2023-11-27T05:24:00,0.8,西,1.4,西,2.8,98.5,0,0,0,0,0,0,1006.9,1021.4
326,2023-11-27T05:25:00,0.8,西,1.4,西,2.8,98.5,0,0,0,0,0,0,1006.9,1021.4
327,2023-11-27T05:26:00,0.9,西,1.4,西,3,98.5,0,0,0,0,0,0,1006.9,1021.4
328,2023-11-27T05:27:00,0.9,西,1.4,西,2.7,98.5,0,0,0,0,0,0,1007,1021.5
329,2023-11-27T05:28:00,0.9,西,1.4,西北西,2.9,98.5,0,0,0,0,0,0,1006.9,1021.4
330,2023-11-27T05:29:00,0.9,西,1.6,西,2.6,98.5,0,0,0,0,0,0,1006.9,1021.4
331,2023-11-27T05:30:00,0.9,西,1.6,西,2.5,98.4,0,0,0,0,0,0,1007,1021.6
332,2023-11-27T05:31:00,0.8,西,1.6,西,2.5,98.3,0,0,0,0,0,0,1006.9,1021.4
333,2023-11-27T05:32:00,0.8,西,1.6,西,2.5,98.3,0,0,0,0,0,0,1006.9,1021.4
334,2023-11-27T05:33:00,0.8,西,1.6,西,2.3,98.3,0,0,0,0,0,0,1007,1021.6